| time (UTC) | temp F | wind direction | speed MPH | gust MPH | rain 1hr in | rain 24hr in | rain mn in | humidity % | barometer mb |
| 20260504034203 | 42 | 258 | 3.0 | 8.0 | 0.00 | 0.22 | 0.22 | 70 | 1006.1 |
| 20260504033224 | 41 | 247 | 3.0 | 8.0 | 0.00 | 0.22 | 0.22 | 70 | 1006.0 |
| 20260504032202 | 42 | 289 | 2.0 | 10.0 | 0.00 | 0.22 | 0.22 | 70 | 1005.9 |
| 20260504031203 | 42 | 285 | 2.0 | 9.0 | 0.00 | 0.22 | 0.22 | 67 | 1005.8 |
| 20260504030203 | 43 | 247 | 4.0 | 8.0 | 0.00 | 0.22 | 0.22 | 67 | 1005.8 |
| 20260504025203 | 42 | 240 | 3.0 | 8.0 | 0.00 | 0.22 | 0.22 | 66 | 1005.7 |
| 20260504024203 | 42 | 269 | 2.0 | 9.0 | 0.00 | 0.22 | 0.22 | 69 | 1005.7 |
| 20260504023203 | 42 | 268 | 3.0 | 11.0 | 0.00 | 0.22 | 0.22 | 69 | 1005.6 |
| 20260504022223 | 43 | 245 | 2.0 | 9.0 | 0.00 | 0.22 | 0.22 | 68 | 1005.5 |
| 20260504021203 | 44 | 285 | 3.0 | 11.0 | 0.00 | 0.22 | 0.22 | 64 | 1005.4 |
| 20260504020223 | 44 | 328 | 4.0 | 12.0 | 0.00 | 0.22 | 0.22 | 63 | 1005.3 |
| 20260504015203 | 43 | 281 | 3.0 | 10.0 | 0.00 | 0.22 | 0.22 | 65 | 1005.2 |
| 20260504014203 | 43 | 217 | 2.0 | 10.0 | 0.00 | 0.22 | 0.22 | 67 | 1005.2 |
| 20260504013202 | 44 | 259 | 1.0 | 8.0 | 0.00 | 0.22 | 0.22 | 64 | 1005.1 |
| 20260504012203 | 45 | 291 | 3.0 | 9.0 | 0.00 | 0.22 | 0.22 | 62 | 1005.0 |
| 20260504011203 | 45 | 297 | 3.0 | 11.0 | 0.00 | 0.22 | 0.22 | 62 | 1004.8 |
| 20260504010204 | 45 | 299 | 3.0 | 10.0 | 0.00 | 0.22 | 0.22 | 63 | 1004.6 |
| 20260504005203 | 45 | 286 | 2.0 | 12.0 | 0.00 | 0.22 | 0.22 | 58 | 1004.4 |
| 20260504004202 | 45 | 318 | 5.0 | 13.0 | 0.00 | 0.22 | 0.22 | 59 | 1004.2 |
| 20260504003224 | 46 | 301 | 5.0 | 14.0 | 0.00 | 0.22 | 0.22 | 57 | 1004.0 |
| 20260504002223 | 47 | 308 | 6.0 | 13.0 | 0.00 | 0.22 | 0.22 | 55 | 1003.9 |
| 20260504001203 | 47 | 314 | 6.0 | 15.0 | 0.00 | 0.22 | 0.22 | 54 | 1003.7 |
| 20260504000204 | 47 | 299 | 5.0 | 17.0 | 0.00 | 0.22 | 0.22 | 55 | 1003.4 |
| 20260503235224 | 48 | 353 | 3.0 | 13.0 | 0.00 | 0.22 | 0.22 | 56 | 1003.3 |
| 20260503234203 | 48 | 309 | 6.0 | 13.0 | 0.00 | 0.22 | 0.22 | 59 | 1003.1 |
| 20260503233203 | 48 | 310 | 3.0 | 10.0 | 0.00 | 0.22 | 0.22 | 59 | 1002.9 |
| 20260503232203 | 49 | 326 | 2.0 | 12.0 | 0.00 | 0.22 | 0.22 | 61 | 1002.6 |
| 20260503231224 | 49 | 288 | 4.0 | 13.0 | 0.00 | 0.22 | 0.22 | 64 | 1002.5 |
| 20260503230203 | 49 | 317 | 3.0 | 10.0 | 0.00 | 0.22 | 0.22 | 70 | 1002.4 |
| 20260503225202 | 49 | 316 | 4.0 | 9.0 | 0.00 | 0.22 | 0.22 | 69 | 1002.2 |
| 20260503224204 | 49 | 262 | 4.0 | 8.0 | 0.00 | 0.22 | 0.22 | 72 | 1002.0 |
| 20260503223224 | 49 | 278 | 1.0 | 8.0 | 0.00 | 0.22 | 0.22 | 74 | 1001.9 |
| 20260503222223 | 49 | 297 | 3.0 | 8.0 | 0.00 | 0.22 | 0.22 | 74 | 1001.8 |
| 20260503221203 | 49 | 300 | 2.0 | 10.0 | 0.00 | 0.22 | 0.22 | 70 | 1001.7 |
| 20260503220203 | 50 | 299 | 3.0 | 11.0 | 0.00 | 0.22 | 0.22 | 69 | 1001.7 |
| 20260503215203 | 51 | 312 | 6.0 | 14.0 | 0.00 | 0.22 | 0.22 | 67 | 1001.5 |
| 20260503214203 | 51 | 342 | 3.0 | 11.0 | 0.00 | 0.22 | 0.22 | 71 | 1001.6 |
| 20260503213203 | 51 | 345 | 7.0 | 13.0 | 0.00 | 0.22 | 0.22 | 68 | 1001.6 |
| 20260503212203 | 50 | 327 | 6.0 | 13.0 | 0.00 | 0.22 | 0.22 | 71 | 1001.6 |
| 20260503211203 | 49 | 329 | 4.0 | 12.0 | 0.00 | 0.22 | 0.22 | 74 | 1001.6 |
| 20260503210223 | 50 | 333 | 5.0 | 13.0 | 0.00 | 0.22 | 0.22 | 73 | 1001.7 |
| 20260503205203 | 50 | 322 | 5.0 | 12.0 | 0.00 | 0.22 | 0.22 | 77 | 1001.7 |
| 20260503204203 | 50 | 325 | 4.0 | 13.0 | 0.00 | 0.22 | 0.22 | 77 | 1001.7 |
| 20260503203203 | 49 | 346 | 4.0 | 13.0 | 0.00 | 0.22 | 0.22 | 77 | 1001.7 |
| 20260503202224 | 49 | 303 | 7.0 | 14.0 | 0.00 | 0.22 | 0.22 | 79 | 1001.8 |
| 20260503201202 | 48 | 305 | 6.0 | 14.0 | 0.00 | 0.22 | 0.22 | 81 | 1001.9 |
| 20260503200224 | 49 | 296 | 4.0 | 17.0 | 0.00 | 0.22 | 0.22 | 85 | 1001.9 |
| 20260503195224 | 47 | 342 | 4.0 | 9.0 | 0.00 | 0.22 | 0.22 | 83 | 1001.9 |
| 20260503194203 | 47 | 348 | 4.0 | 11.0 | 0.00 | 0.22 | 0.22 | 84 | 1002.1 |
| 20260503193203 | 47 | 285 | 2.0 | 13.0 | 0.00 | 0.22 | 0.22 | 88 | 1002.2 |
| 20260503192224 | 46 | 32 | 4.0 | 13.0 | 0.00 | 0.22 | 0.22 | 85 | 1002.2 |
| 20260503191203 | 46 | 24 | 4.0 | 14.0 | 0.00 | 0.22 | 0.22 | 88 | 1002.3 |
| 20260503190203 | 45 | 350 | 7.0 | 15.0 | 0.00 | 0.22 | 0.22 | 89 | 1002.4 |
| 20260503185203 | 44 | 18 | 5.0 | 12.0 | 0.01 | 0.22 | 0.22 | 90 | 1002.5 |
| 20260503184202 | 44 | 347 | 6.0 | 18.0 | 0.01 | 0.22 | 0.22 | 91 | 1002.6 |
| 20260503182245 | 43 | 352 | 8.0 | 19.0 | 0.01 | 0.22 | 0.22 | 92 | 1002.4 |
| 20260503181203 | 44 | 12 | 5.0 | 16.0 | 0.01 | 0.22 | 0.22 | 93 | 1002.5 |
| 20260503180202 | 44 | 2 | 5.0 | 14.0 | 0.01 | 0.22 | 0.22 | 93 | 1002.5 |
| 20260503175224 | 44 | 349 | 6.0 | 16.0 | 0.00 | 0.21 | 0.21 | 93 | 1002.5 |
| 20260503174203 | 43 | 347 | 6.0 | 14.0 | 0.00 | 0.21 | 0.21 | 92 | 1002.4 |
| 20260503173202 | 44 | 349 | 3.0 | 17.0 | 0.00 | 0.21 | 0.21 | 94 | 1002.4 |
| 20260503172203 | 43 | 353 | 6.0 | 14.0 | 0.00 | 0.21 | 0.21 | 93 | 1002.4 |
| 20260503171203 | 43 | 350 | 6.0 | 14.0 | 0.00 | 0.21 | 0.21 | 93 | 1002.3 |
| 20260503170203 | 43 | 359 | 7.0 | 18.0 | 0.00 | 0.21 | 0.21 | 93 | 1002.1 |
| 20260503160203 | 42 | 12 | 9.0 | 18.0 | 0.00 | 0.21 | 0.21 | 94 | 1002.2 |
| 20260503150203 | 43 | 5 | 4.0 | 14.0 | 0.00 | 0.19 | 0.18 | 94 | 1002.8 |
| 20260503140203 | 44 | 23 | 4.0 | 9.0 | 0.00 | 0.20 | 0.17 | 95 | 1003.0 |
| 20260503131203 | 44 | 20 | 2.0 | 8.0 | 0.00 | 0.20 | 0.17 | 96 | 1003.5 |
| 20260503130245 | 44 | 357 | 5.0 | 12.0 | 0.00 | 0.20 | 0.17 | 96 | 1003.6 |
| 20260503120202 | 43 | 343 | 2.0 | 6.0 | 0.00 | 0.16 | 0.13 | 96 | 1004.6 |
| 20260503110202 | 43 | 357 | 1.0 | 3.0 | 0.00 | 0.12 | 0.09 | 96 | 1004.9 |
| 20260503100203 | 43 | 32 | 2.0 | 6.0 | 0.00 | 0.12 | 0.09 | 96 | 1005.1 |
| 20260503090203 | 44 | 338 | 2.0 | 8.0 | 0.00 | 0.12 | 0.09 | 96 | 1005.6 |
| 20260503081203 | 44 | 320 | 1.0 | 3.0 | 0.02 | 0.09 | 0.06 | 96 | 1006.4 |
| 20260503080202 | 44 | 140 | 1.0 | 2.0 | 0.01 | 0.08 | 0.05 | 96 | 1006.5 |
| 20260503072203 | 44 | 137 | 0.0 | 0.0 | 0.02 | 0.05 | 0.02 | 95 | 1006.6 |
| 20260503071202 | 44 | 137 | 0.0 | 1.0 | 0.01 | 0.04 | 0.01 | 95 | 1006.8 |
| 20260503070203 | 44 | 137 | 1.0 | 2.0 | 0.01 | 0.04 | 0.01 | 95 | 1006.8 |
| 20260503060203 | 44 | 137 | 1.0 | 2.0 | 0.00 | 0.03 | 0.00 | 95 | 1007.3 |
| 20260503054203 | 44 | 159 | 1.0 | 2.0 | 0.00 | 0.03 | 0.00 | 95 | 1007.7 |
| 20260503053202 | 44 | 159 | 0.0 | 0.0 | 0.00 | 0.03 | 0.00 | 95 | 1007.7 |
| 20260503052203 | 44 | 159 | 0.0 | 0.0 | 0.00 | 0.03 | 0.00 | 95 | 1007.8 |
| 20260503051202 | 44 | 159 | 0.0 | 0.0 | 0.00 | 0.03 | 0.00 | 95 | 1008.0 |
| 20260503050203 | 44 | 159 | 0.0 | 0.0 | 0.00 | 0.03 | 0.00 | 95 | 1008.1 |
| 20260503045202 | 44 | 159 | 0.0 | 0.0 | 0.00 | 0.03 | 0.00 | 95 | 1008.1 |
| 20260503044203 | 44 | 159 | 0.0 | 0.0 | 0.00 | 0.03 | 0.00 | 94 | 1008.2 |
| 20260503043202 | 44 | 159 | 0.0 | 0.0 | 0.00 | 0.03 | 0.00 | 94 | 1008.4 |
| 20260503042203 | 44 | 159 | 0.0 | 0.0 | 0.00 | 0.03 | 0.00 | 94 | 1008.6 |
| 20260503041202 | 44 | 159 | 0.0 | 0.0 | 0.00 | 0.03 | 0.00 | 94 | 1008.7 |
| 20260503040203 | 44 | 159 | 0.0 | 0.0 | 0.00 | 0.03 | 0.00 | 94 | 1009.0 |
| 20260503035203 | 44 | 159 | 0.0 | 2.0 | 0.00 | 0.03 | 0.03 | 94 | 1009.1 |